This demonstration page uses our WeatherBlox Daily Observations layout. Learn more.

Left ArrowRight Arrow

31.84235, -102.49876

Hourly Observations for March 15, 2017

Temp ( °F °C ) Dew Point ( °F °C ) Humidity (%) Winds ( mph kmh ) Pressure ( in mb ) Visibility ( mi km ) Precip ( " mm )
12:53 am 00:53 Clear 61 16.1 44 6.7 54 54 SSE 10 17 30.04 1017 10 16 0.00 0.00
1:53 am 01:53 Clear 58 14.4 45 7.2 62 62 SSE 9 15 30.04 1017 10 16 0.00 0.00
2:53 am 02:53 Clear 57 13.9 45 7.2 64 64 SE 10 17 30.04 1017 10 16 0.00 0.00
3:53 am 03:53 Clear 56 13.3 45 7.2 67 67 SSE 10 17 30.03 1017 10 16 0.00 0.00
4:53 am 04:53 Clear 51 10.6 43 6.1 74 74 E 9 15 30.05 1018 10 16 0.00 0.00
5:53 am 05:53 Clear 50 10 43 6.1 77 77 ENE 7 11 30.06 1018 10 16 0.00 0.00
6:53 am 06:53 Clear 46 7.8 41 5 83 83 ENE 10 17 30.07 1018 10 16 0.00 0.00
7:53 am 07:53 Clear 47 8.3 43 6.1 86 86 ENE 12 19 30.10 1019 10 16 0.00 0.00
8:53 am 08:53 Sunny 49 9.4 42 5.6 77 77 ENE 13 20 30.13 1020 10 16 0.00 0.00
9:53 am 09:53 Sunny 52 11.1 41 5 66 66 ENE 14 22 30.16 1021 10 16 0.00 0.00
10:53 am 10:53 Sunny 57 13.9 42 5.6 58 58 E 12 19 30.18 1022 10 16 0.00 0.00
11:53 am 11:53 Sunny 61 16.1 45 7.2 56 56 E 10 17 30.17 1022 10 16 0.00 0.00
12:53 pm 12:53 Sunny 66 18.9 47 8.3 50 50 E 13 20 30.16 1022 10 16 0.00 0.00
1:53 pm 13:53 Sunny 71 21.7 49 9.4 46 46 SE 8 13 30.14 1021 10 16 0.00 0.00
2:53 pm 14:53 Sunny 75 23.9 49 9.4 40 40 SSE 18 30 30.09 1019 10 16 0.00 0.00
3:53 pm 15:53 Sunny 75 23.9 50 10 41 41 S 20 31 30.06 1018 10 16 0.00 0.00
4:53 pm 16:53 Sunny 75 23.9 49 9.4 40 40 S 12 19 30.07 1018 10 16 0.00 0.00
5:00 pm 17:00 Mostly Sunny 75 23.9 49 9.4 40 40 SSE 12 19 29.97 1015 10 16 0.00 0.00
5:53 pm 17:53 Sunny 74 23.3 49 9.4 41 41 S 9 15 30.06 1018 10 16 0.00 0.00
6:18 pm 18:18 Mostly Sunny 74 23.3 49 9.4 41 41 S 12 19 29.97 1015 10 16 0.00 0.00
6:53 pm 18:53 Sunny 73 22.8 49 9.4 43 43 S 14 22 30.06 1018 10 16 0.00 0.00
7:01 pm 19:01 Mostly Sunny 72 22.2 49 9.4 44 44 S 13 20 30.00 1016 10 16 0.00 0.00
7:53 pm 19:53 Sunny 69 20.6 50 10 51 51 S 12 19 30.08 1019 10 16 0.00 0.00
8:53 pm 20:53 Clear 66 18.9 51 10.6 59 59 S 16 26 30.09 1019 10 16 0.00 0.00
9:53 pm 21:53 Clear 62 16.7 51 10.6 67 67 SSE 15 24 30.11 1020 10 16 0.00 0.00
10:53 pm 22:53 Clear 60 15.6 52 11.1 75 75 S 15 24 30.11 1020 10 16 0.00 0.00
11:53 pm 23:53 Clear 58 14.4 51 10.6 78 78 S 12 19 30.10 1019 10 16 0.00 0.00

Powered by AerisWeather